Tracking 30922 objects as of 2-Jul-2025
HD Live streaming from Space Station
objects crossing your sky now

TITAN 3C TRANSTAGE DEB

Track TITAN 3C TRANSTAGE DEB now!
10-day predictions


NORAD ID: 21692
Int'l Code: 1965-108AF
Perigee: 549.1 km
Apogee: 22,881.3 km
Inclination: 27.9 °
Period: 403.4 minutes
Semi major axis: 18086 km
RCS: 0.133 m2 (medium)
Launch date: December 21, 1965
Source: United States (US)
Launch site: AIR FORCE EASTERN TEST RANGE (AFETR)

Note: This is SATELLITE DEBRIS
Your satellite tracking list
Your tracking list is empty




NASA's NSSDC Master Catalog

Two Line Element Set (TLE):
1 21692U 65108AF  25182.01617362  .00002202  00000-0  99087-2 0  9995
2 21692  27.9055  23.8490 6173829 153.8690 248.6819  3.56929638151853
Source of the keplerian elements: AFSPC